Location: PACMO
(41.3967°N, 90.3760°W)
Time: 22:44:03
(UTC-05:00)

NOAA 19 - Visible Passes

Search period start: 31 July 2014 00:00
Search period end: 10 August 2014 00:00
Orbit: 843 x 863 km, 98.9° (Epoch: 31 July)

Date Brightness Start Highest point End Pass type
(mag) Time Alt. Az. Time Alt. Az. Time Alt. Az.
31 Jul 7.0 02:08:40 10° NE 02:12:46 21° E 02:13:58 19° ESE visible
31 Jul 5.5 03:48:24 10° N 03:53:47 53° WNW 03:56:01 33° SW visible
01 Aug 7.2 01:58:10 10° NE 02:01:36 17° E 02:02:43 16° ESE visible
01 Aug 5.3 03:37:17 10° N 03:42:47 67° WNW 03:44:46 40° SW visible
02 Aug 7.5 01:48:00 10° ENE 01:50:25 13° E 01:51:28 12° E visible
02 Aug 5.1 03:26:12 10° NNE 03:31:46 82° WNW 03:33:32 46° SSW visible
02 Aug 7.2 05:09:27 10° NNW 05:11:37 12° WNW 05:13:47 10° W visible
03 Aug 5.2 03:15:09 10° NNE 03:20:44 81° ESE 03:22:17 50° S visible
03 Aug 7.1 04:57:39 10° NNW 05:00:45 15° WNW 05:03:51 10° W visible
04 Aug 5.4 03:04:09 10° NNE 03:09:41 65° ESE 03:11:02 49° SSE visible
04 Aug 6.9 04:46:07 10° NNW 04:49:52 19° WNW 04:53:05 12° W visible
05 Aug 5.7 02:53:12 10° NNE 02:58:37 52° E 02:59:47 44° SE visible
05 Aug 6.6 04:34:43 10° NNW 04:38:58 23° WNW 04:41:50 16° WSW visible
06 Aug 6.0 02:42:18 10° NNE 02:47:32 41° E 02:48:32 38° SE visible
06 Aug 6.4 04:23:24 10° N 04:28:03 28° WNW 04:30:35 20° WSW visible
07 Aug 6.4 02:31:27 10° NNE 02:36:26 33° E 02:37:17 31° ESE visible
07 Aug 6.1 04:12:09 10° N 04:17:06 34° WNW 04:19:20 25° WSW visible
08 Aug 6.7 02:20:40 10° NE 02:25:18 27° E 02:26:02 26° ESE visible
08 Aug 5.8 04:00:57 10° N 04:06:09 42° WNW 04:08:05 31° WSW visible
09 Aug 7.0 02:10:00 10° NE 02:14:10 21° E 02:14:46 21° ESE visible
09 Aug 5.5 03:49:47 10° N 03:55:10 52° WNW 03:56:50 39° WSW visible
